VOI559 MMOX-MMMX

Flight info

Callsign VOI559
Flight time 0h 40m
Altitude 34000
Route MAXIL4 MAXIL UT158 KODEK UT157 LARLO LARLO4A
Aircraft A20N/M-SDE2E3FGHIRWXY/LB1

Departure

Time 2026-04-25 19:03
Airport Xoxocotlán International Airport (MMOX)

Arrival

Time 2026-04-25 19:44
Airport Mexico City Benito Juárez International Airport (MMMX)
Time Latitude Longitude Altitude Speed Heading
2026-04-25 18:48 17.00177 -96.72298 4988 ft 0 kts 76°
2026-04-25 18:59 17.00154 -96.72287 4988 ft 5 kts 204°
2026-04-25 18:59 17.00056 -96.72392 4987 ft 14 kts 225°
2026-04-25 19:00 16.99890 -96.72566 4983 ft 20 kts 223°
2026-04-25 19:00 16.99760 -96.72629 4983 ft 21 kts 193°
2026-04-25 19:01 16.99452 -96.72717 4981 ft 24 kts 197°
2026-04-25 19:01 16.99286 -96.72766 4981 ft 26 kts 195°
2026-04-25 19:01 16.99107 -96.72816 4978 ft 28 kts 194°
2026-04-25 19:01 16.98934 -96.72856 4975 ft 19 kts 178°
2026-04-25 19:02 16.98856 -96.72890 4974 ft 7 kts 12°
2026-04-25 19:02 16.98866 -96.72887 4974 ft 0 kts 16°
2026-04-25 19:02 16.98907 -96.72875 4994 ft 31 kts 16°
2026-04-25 19:03 16.99609 -96.72671 4982 ft 123 kts 15°
2026-04-25 19:03 17.01351 -96.72149 5666 ft 158 kts 19°
2026-04-25 19:03 17.02384 -96.71769 6414 ft 158 kts 22°
2026-04-25 19:04 17.04632 -96.71089 7276 ft 180 kts
2026-04-25 19:04 17.05942 -96.71163 7655 ft 199 kts 342°
2026-04-25 19:05 17.08103 -96.73261 8278 ft 242 kts 304°
2026-04-25 19:05 17.09848 -96.76634 9002 ft 287 kts 294°
2026-04-25 19:05 17.10889 -96.78448 9636 ft 295 kts 313°
2026-04-25 19:06 17.12368 -96.79954 10345 ft 303 kts 317°
2026-04-25 19:06 17.15700 -96.83155 10893 ft 345 kts 318°
2026-04-25 19:06 17.17482 -96.84869 11564 ft 350 kts 318°
2026-04-25 19:07 17.21080 -96.88359 13069 ft 356 kts 318°
2026-04-25 19:07 17.22902 -96.90135 13794 ft 360 kts 318°
2026-04-25 19:08 17.26609 -96.93750 15089 ft 368 kts 318°
2026-04-25 19:08 17.28496 -96.95590 15726 ft 372 kts 318°
2026-04-25 19:09 17.33861 -97.00218 17397 ft 381 kts 326°
2026-04-25 19:09 17.35302 -97.01278 17830 ft 383 kts 326°
2026-04-25 19:09 17.40444 -97.05086 19178 ft 390 kts 326°
2026-04-25 19:10 17.42670 -97.06737 19709 ft 393 kts 326°
2026-04-25 19:10 17.44906 -97.08397 20302 ft 395 kts 326°
2026-04-25 19:10 17.47160 -97.10071 20854 ft 399 kts 326°
2026-04-25 19:10 17.49431 -97.11758 21425 ft 402 kts 325°
2026-04-25 19:11 17.51719 -97.13457 21990 ft 405 kts 325°
2026-04-25 19:11 17.54028 -97.15173 22547 ft 408 kts 325°
2026-04-25 19:11 17.56352 -97.16900 23093 ft 411 kts 325°
2026-04-25 19:11 17.58687 -97.18639 23614 ft 414 kts 324°
2026-04-25 19:12 17.60909 -97.20566 24094 ft 416 kts 317°
2026-04-25 19:12 17.62995 -97.22684 24592 ft 418 kts 316°
2026-04-25 19:12 17.65092 -97.24802 25062 ft 420 kts 316°
2026-04-25 19:12 17.67198 -97.26924 25515 ft 422 kts 316°
2026-04-25 19:13 17.69296 -97.29035 25960 ft 424 kts 316°
2026-04-25 19:13 17.71454 -97.31210 26411 ft 426 kts 316°
2026-04-25 19:13 17.73568 -97.33341 26835 ft 428 kts 316°
2026-04-25 19:13 17.75717 -97.35510 27262 ft 430 kts 316°
2026-04-25 19:14 17.77877 -97.37691 27678 ft 432 kts 316°
2026-04-25 19:14 17.79343 -97.39173 27951 ft 433 kts 316°
2026-04-25 19:14 17.82222 -97.42083 28473 ft 436 kts 316°
2026-04-25 19:14 17.84409 -97.44294 28884 ft 437 kts 316°
2026-04-25 19:15 17.86604 -97.46514 29253 ft 439 kts 316°
2026-04-25 19:15 17.88812 -97.48747 29594 ft 442 kts 316°
2026-04-25 19:15 17.91034 -97.50995 29986 ft 443 kts 316°
2026-04-25 19:15 17.93256 -97.53245 30319 ft 446 kts 316°
2026-04-25 19:16 17.95493 -97.55511 30614 ft 448 kts 316°
2026-04-25 19:16 17.97744 -97.57791 30957 ft 450 kts 316°
2026-04-25 19:16 17.99996 -97.60073 31396 ft 449 kts 316°
2026-04-25 19:16 18.02238 -97.62347 31845 ft 448 kts 315°
2026-04-25 19:17 18.04478 -97.64618 32260 ft 447 kts 315°
2026-04-25 19:17 18.06687 -97.66860 32696 ft 446 kts 315°
2026-04-25 19:17 18.08945 -97.69153 33131 ft 445 kts 315°
2026-04-25 19:17 18.11169 -97.71412 33554 ft 444 kts 315°
2026-04-25 19:18 18.13383 -97.73662 33815 ft 442 kts 315°
2026-04-25 19:18 18.17867 -97.78221 33861 ft 456 kts 315°
2026-04-25 19:19 18.22416 -97.82851 33844 ft 459 kts 315°
2026-04-25 19:19 18.24741 -97.85216 33674 ft 459 kts 315°
2026-04-25 19:19 18.27034 -97.87551 33408 ft 459 kts 315°
2026-04-25 19:19 18.28554 -97.89099 33246 ft 459 kts 315°
2026-04-25 19:20 18.31594 -97.92195 32906 ft 461 kts 315°
2026-04-25 19:20 18.33897 -97.94542 32648 ft 461 kts 315°
2026-04-25 19:20 18.36204 -97.96894 32397 ft 462 kts 315°
2026-04-25 19:20 18.38513 -97.99251 32150 ft 463 kts 315°
2026-04-25 19:21 18.40822 -98.01608 31894 ft 463 kts 315°
2026-04-25 19:21 18.45461 -98.06345 31411 ft 465 kts 315°
2026-04-25 19:21 18.47785 -98.08719 31181 ft 466 kts 315°
2026-04-25 19:22 18.50116 -98.11101 30935 ft 467 kts 315°
2026-04-25 19:22 18.52445 -98.13483 30706 ft 467 kts 315°
2026-04-25 19:22 18.57092 -98.18237 30222 ft 464 kts 315°
2026-04-25 19:23 18.59401 -98.20602 29750 ft 461 kts 315°
2026-04-25 19:23 18.63950 -98.25264 28467 ft 452 kts 315°
2026-04-25 19:23 18.66189 -98.27560 27761 ft 448 kts 315°
2026-04-25 19:24 18.68414 -98.29846 27116 ft 443 kts 314°
2026-04-25 19:24 18.70361 -98.32337 26512 ft 440 kts 303°
2026-04-25 19:24 18.72631 -98.38261 25302 ft 435 kts 282°
2026-04-25 19:25 18.73757 -98.44489 24092 ft 430 kts 282°
2026-04-25 19:25 18.74321 -98.47577 23502 ft 427 kts 282°
2026-04-25 19:25 18.74881 -98.50641 22866 ft 423 kts 282°
2026-04-25 19:26 18.75434 -98.53672 22278 ft 419 kts 282°
2026-04-25 19:26 18.75985 -98.56692 21698 ft 419 kts 282°
2026-04-25 19:26 18.76527 -98.59667 21120 ft 417 kts 282°
2026-04-25 19:26 18.77079 -98.62703 20525 ft 413 kts 282°
2026-04-25 19:27 18.77617 -98.65664 19947 ft 409 kts 282°
2026-04-25 19:27 18.77971 -98.67613 19559 ft 407 kts 282°
2026-04-25 19:27 18.78672 -98.71473 18793 ft 403 kts 282°
2026-04-25 19:27 18.79198 -98.74371 18220 ft 402 kts 282°
2026-04-25 19:28 18.79729 -98.77299 17639 ft 400 kts 282°
2026-04-25 19:28 18.80243 -98.80133 17094 ft 395 kts 282°
2026-04-25 19:28 18.80769 -98.82984 16890 ft 391 kts 283°
2026-04-25 19:28 18.81350 -98.85772 16834 ft 395 kts 284°
2026-04-25 19:29 18.81965 -98.88593 16831 ft 395 kts 284°
2026-04-25 19:29 18.82582 -98.91420 16859 ft 395 kts 284°
2026-04-25 19:29 18.83190 -98.94242 16885 ft 394 kts 284°
2026-04-25 19:29 18.83793 -98.97067 16906 ft 395 kts 284°
2026-04-25 19:30 18.84394 -98.99896 16933 ft 395 kts 284°
2026-04-25 19:30 18.84947 -99.02743 16958 ft 396 kts 282°
2026-04-25 19:30 18.85438 -99.05600 16983 ft 395 kts 282°
2026-04-25 19:30 18.85918 -99.08454 17010 ft 395 kts 282°
2026-04-25 19:31 18.86404 -99.11314 17030 ft 393 kts 282°
2026-04-25 19:31 18.87087 -99.14053 17054 ft 379 kts 291°
2026-04-25 19:31 18.88187 -99.16562 17071 ft 377 kts 301°
2026-04-25 19:31 18.89664 -99.18858 17079 ft 379 kts 308°
2026-04-25 19:32 18.91240 -99.21084 17077 ft 377 kts 310°
2026-04-25 19:32 18.93157 -99.22928 17035 ft 371 kts 328°
2026-04-25 19:32 18.95468 -99.24008 16939 ft 359 kts 347°
2026-04-25 19:32 18.97081 -99.24241 16841 ft 348 kts
2026-04-25 19:33 19.00097 -99.23484 16619 ft 326 kts 29°
2026-04-25 19:33 19.01782 -99.21988 16462 ft 312 kts 51°
2026-04-25 19:33 19.02964 -99.20152 16118 ft 302 kts 56°
2026-04-25 19:33 19.04077 -99.18317 15849 ft 288 kts 54°
2026-04-25 19:34 19.05200 -99.16639 15723 ft 273 kts 51°
2026-04-25 19:34 19.06353 -99.15078 15504 ft 265 kts 49°
2026-04-25 19:34 19.07523 -99.13598 15342 ft 262 kts 48°
2026-04-25 19:34 19.08734 -99.12118 15179 ft 270 kts 47°
2026-04-25 19:35 19.09981 -99.10614 14900 ft 271 kts 47°
2026-04-25 19:35 19.11205 -99.09140 14686 ft 265 kts 47°
2026-04-25 19:35 19.12422 -99.07673 14393 ft 264 kts 47°
2026-04-25 19:35 19.13632 -99.06214 14064 ft 264 kts 47°
2026-04-25 19:36 19.14839 -99.04754 13812 ft 261 kts 47°
2026-04-25 19:36 19.16087 -99.03397 13708 ft 256 kts 33°
2026-04-25 19:36 19.17742 -99.02708 13677 ft 260 kts
2026-04-25 19:36 19.19517 -99.02947 13683 ft 257 kts 336°
2026-04-25 19:37 19.20964 -99.03994 13622 ft 249 kts 317°
2026-04-25 19:37 19.22185 -99.05280 13374 ft 246 kts 314°
2026-04-25 19:37 19.23371 -99.06589 13037 ft 246 kts 314°
2026-04-25 19:37 19.24528 -99.07919 12718 ft 246 kts 308°
2026-04-25 19:38 19.25535 -99.09375 12392 ft 245 kts 307°
2026-04-25 19:38 19.26552 -99.10818 12091 ft 243 kts 307°
2026-04-25 19:38 19.27556 -99.12213 11990 ft 232 kts 308°
2026-04-25 19:38 19.28520 -99.13541 11792 ft 225 kts 308°
2026-04-25 19:39 19.29475 -99.14857 11461 ft 225 kts 308°
2026-04-25 19:39 19.30427 -99.16170 11146 ft 225 kts 308°
2026-04-25 19:39 19.31367 -99.17471 10865 ft 225 kts 308°
2026-04-25 19:39 19.32440 -99.18664 10528 ft 224 kts 328°
2026-04-25 19:40 19.33813 -99.19267 10494 ft 206 kts 350°
2026-04-25 19:40 19.35196 -99.19288 10410 ft 193 kts 11°
2026-04-25 19:40 19.36400 -99.18817 10347 ft 178 kts 31°
2026-04-25 19:40 19.37307 -99.18032 10284 ft 160 kts 48°
2026-04-25 19:41 19.37914 -99.17093 10079 ft 152 kts 60°
2026-04-25 19:41 19.38449 -99.16120 9766 ft 153 kts 59°
2026-04-25 19:41 19.38996 -99.15157 9476 ft 153 kts 59°
2026-04-25 19:41 19.39173 -99.14845 9417 ft 152 kts 59°
2026-04-25 19:42 19.40077 -99.13234 9107 ft 150 kts 58°
2026-04-25 19:42 19.40606 -99.12296 8821 ft 148 kts 58°
2026-04-25 19:42 19.41131 -99.11342 8418 ft 150 kts 58°
2026-04-25 19:42 19.41662 -99.10403 8010 ft 148 kts 59°
2026-04-25 19:43 19.42187 -99.09485 7669 ft 148 kts 57°
2026-04-25 19:43 19.42719 -99.08542 7389 ft 146 kts 58°
2026-04-25 19:43 19.43225 -99.07648 7306 ft 136 kts 59°
2026-04-25 19:43 19.43617 -99.06952 7302 ft 81 kts 58°
2026-04-25 19:44 19.43804 -99.06620 7303 ft 26 kts 59°
2026-04-25 19:44 19.43927 -99.06513 7303 ft 19 kts 351°
2026-04-25 19:44 19.43962 -99.06626 7305 ft 18 kts 269°
2026-04-25 19:44 19.43962 -99.06761 7306 ft 19 kts 271°
2026-04-25 19:45 19.44046 -99.06852 7306 ft 18 kts 329°
2026-04-25 19:45 19.44079 -99.06927 7306 ft 10 kts 232°
2026-04-25 19:45 19.44040 -99.07001 7306 ft 13 kts 240°
2026-04-25 19:45 19.43993 -99.07088 7306 ft 15 kts 239°
2026-04-25 19:46 19.43934 -99.07189 7305 ft 17 kts 239°
2026-04-25 19:46 19.43868 -99.07305 7305 ft 19 kts 239°
2026-04-25 19:46 19.43796 -99.07433 7304 ft 21 kts 239°
2026-04-25 19:46 19.43718 -99.07573 7304 ft 23 kts 239°
2026-04-25 19:47 19.43636 -99.07721 7305 ft 24 kts 239°
2026-04-25 19:47 19.43569 -99.07841 7304 ft 8 kts 239°
2026-04-25 19:47 19.43535 -99.07899 7304 ft 10 kts 239°
2026-04-25 19:47 19.43495 -99.07972 7305 ft 12 kts 239°
2026-04-25 19:48 19.43467 -99.08021 7305 ft 5 kts 239°
2026-04-25 19:48 19.43442 -99.08065 7305 ft 9 kts 238°
2026-04-25 19:48 19.43406 -99.08129 7304 ft 12 kts 239°
2026-04-25 19:48 19.43376 -99.08211 7304 ft 11 kts 282°
2026-04-25 19:49 19.43417 -99.08251 7304 ft 5 kts 329°
2026-04-25 19:49 19.43426 -99.08257 7304 ft 4 kts 329°
2026-04-25 19:49 19.43433 -99.08261 7304 ft 0 kts 330°